Regional Weather Roundup
Issued by NWS

Home | Current Version | Previous Version | Graphics & Text | Print | Product List | Glossary On
Versions: 1 2 3 4 5 6 7 8 9 10 11 12 13 14 15 16 17 18 19 20 21 22 23 24 25 26 27
000
ASUS45 KBOU 300507
RWRCO

WEATHER ROUNDUP FOR COLORADO
NATIONAL WEATHER SERVICE DENVER/BOULDER CO
1100 PM MDT SAT APR 29 2017

NOTE: "FAIR" INDICATES FEW OR NO CLOUDS BELOW 12000 FEET WITH NO
SIGNIFICANT WEATHER AND/OR OBSTRUCTIONS TO VISIBILITY.

COZ001>005-013-030-031-300600-
...NORTHWEST COLORADO...

CITY           SKY/WX    TMP DP  RH WIND       PRES   REMARKS
CRAIG          FAIR      32  20  61 VRB3      30.19R
HAYDEN         FAIR      34  21  60 CALM      30.16S
MEEKER         FAIR      34  20  56 CALM      30.18R
MOUNT WERNER   NOT AVBL
STEAMBOAT SPGS FAIR      29  20  69 CALM      30.16S
WALDEN           N/A     19  14  79 NW6       30.18F WCI  11
$$

COZ006>008-011-300600-
...WEST CENTRAL VALLEYS...

CITY           SKY/WX    TMP DP  RH WIND       PRES   REMARKS
GRAND JUNCTION FAIR      41  19  41 N9        30.15R
MONTROSE       MOCLDY    40  25  55 NW12      30.13R
EAGLE          CLOUDY    31  23  72 E3        30.17S
RIFLE          FAIR      41  21  44 W8        30.16R
DELTA          MOCLDY    47  22  36 NW16      30.11R
NUCLA          FAIR      37  19  48 N10       30.16R
$$

COZ017>023-064>068-300600-
...SOUTHWEST COLORADO...

CITY           SKY/WX    TMP DP  RH WIND       PRES   REMARKS
DURANGO        FAIR      30  27  88 CALM      30.03R
CORTEZ         FAIR      36  22  56 N6        30.08R
PAGOSA SPRINGS MOCLDY    31  24  74 W5        30.04S WCI  27
TELLURIDE      FLURRIES  30  21  69 NE5G22    30.10S WCI  25
WOLF CREEK PAS LGT SNOW  14  12  92 N15G21    30.07S WCI  -1
$$

COZ009-010-012-014-032>034-037-058>063-300600-
...CENTRAL COLORADO...

CITY           SKY/WX    TMP DP  RH WIND       PRES   REMARKS
ASPEN          CLOUDY    29  20  69 CALM      30.11S
BUENA VISTA    FAIR      26  21  83 CALM      30.07F
COPPER MTN     SNOW      18  10  73 MISG      30.08F VSB 1/2
BERTHOUD PASS  HAZE       9  -2  61 N7        30.07F VSB<1/4 WCI  -3
COTTONWOOD PAS FAIR      27  18  69 W3        30.06F
GUNNISON       FAIR      31  22  69 CALM      30.07F
KREMMLING      FAIR      34  23  64 N13       30.17S WCI  25
LEADVILLE      FAIR      18  12  77 N7        30.08F WCI   9
SALIDA         FAIR      28  25  89 W3        30.16F
SUNLIGHT       LGT SNOW  18  16  93 N5        30.18S WCI  11
WILKERSON PASS MOCLDY   N/A N/A N/A N16G25    30.06F
$$

COZ069>075-300600-
...SAN LUIS VALLEY/SANGRE DE CRISTO MOUNTAINS...

CITY           SKY/WX    TMP DP  RH WIND       PRES   REMARKS
ALAMOSA        MOCLDY    26  24  92 SW7       30.02F WCI  18
LA VETA PASS   HVY SNOW  18  14  86 NW14G23   30.10F VSB 1/4 WCI   4
SAGUACHE       CLOUDY    32  19  59 NW13      30.04F WCI  22
$$

COZ035-036-038>040-300600-
...NORTHERN COLORADO FRONT RANGE...

CITY           SKY/WX    TMP DP  RH WIND       PRES   REMARKS
DENVER INTL AP MOCLDY    30  23  75 W15       30.15F WCI  19
DMNS CITY PARK   N/A     29  26  86 W3        30.17F
AURORA         CLOUDY    29  26  91 W10       30.16F WCI  19
FRONT RANGE AP NOT AVBL
ERIE MUNI ARPT MOCLDY    30  26  87 CALM      30.19F
BOULDER MUN AP FAIR      32  27  80 W5        30.18F WCI  27
CENTENNIAL     MOCLDY    27  26  96 W13       30.15F WCI  16
BROOMFIELD     NOT AVBL
FORT COLLINS   FAIR      28  20  71 NW7       30.18F WCI  21
LONGMONT       FAIR      31  24  74 W5        30.21F WCI  26
$$

COZ041-046-047-076>085-087-088-300600-
...PIKES PEAK/PALMER DIVIDE AND SOUTHERN FOOTHILLS...

CITY           SKY/WX    TMP DP  RH WIND       PRES   REMARKS
COLO. SPRINGS  CLOUDY    29  22  75 NW25G32   30.06F WCI  14
A. F. ACADEMY  MIX PCPN  25  21  86 N30G40    30.06F WCI   8
SCHRIEVER AFB  MOCLDY    28  21  75 NW25G38   30.05F WCI  13
ELLICOTT         N/A    N/A N/A N/A N29G37    30.02R
FALCON         CLOUDY    25  20  81 N29G41    30.02F WCI   9
FORT CARSON    FAIR      30  21  67 N29G39    30.04F WCI  16
LIMON          LGT SNOW  29  28  96 N23G32    30.07F FOG     WCI  15
MONUMENT HILL  LGT SNOW  21  21 100 NW26G32   30.11F WCI   4
TRINIDAD       LGT SNOW  28  23  81 N24G31    30.08F WCI  14
$$

COZ042>045-048>051-090-091-300600-
...NORTHEAST COLORADO...

CITY           SKY/WX    TMP DP  RH WIND       PRES   REMARKS
GREELEY ARPT   FAIR      33  25  72 NW13      30.18F WCI  24
AKRON          CLOUDY    36  24  62 N16       30.10F
BURLINGTON     NOT AVBL
WRAY           NOT AVBL
STERLING       FAIR      37  32  81 N7        30.12F
HOLYOKE        NOT AVBL
FORT MORGAN    FAIR      36  21  55 NW15      30.13F
$$

COZ086-089-092>099-300600-
...SOUTHEAST COLORADO...

CITY           SKY/WX    TMP DP  RH WIND       PRES   REMARKS
PUEBLO         CLOUDY    35  24  64 N18       30.10R WCI  24
LA JUNTA       LGT SNOW  34  30  85 N24       30.06S FOG     WCI  21
LAMAR          LGT SNOW  34  30  85 N24G33    29.96F FOG     WCI  21
SPRINGFIELD      N/A     30  30 100 N31G40    29.94F WCI  15
$$




USA.gov is the U.S. government's official web portal to all federal, state and local government web resources and services.